Volver al catálogo

SL-14 DEB

ActivoPO
NORAD 25454·DEBRIS·🇷🇺 Russia

Lanzado Aug 18, 1987 desde Plesetsk Cosmodrome

Loading…

Próximos Pases (próximas 24 horas)

TLE

ActualizadoSource: Space-Track

Época: Sep 14, 2026, 04:59 UTC

1 25454U 87068CC  26257.20794387  .00076455  00000-0  57473-2 0  9996
2 25454  82.1367 342.2910 0017855 275.4952  84.4235 15.02080316655020

Sigue SL-14 DEB en tiempo real con AllMySat

Download on the App Store